星链-34551 (STARLINK-34551)

导读 | 豆包AI

STARLINK-34551是美国SpaceX星链星座的一颗卫星,于2025年6月28日发射升空。星链计划旨在构建全球卫星互联网星座,为全球偏远地区、海洋空域等提供低延迟高速网络接入服务,该卫星入轨后将进一步扩充星链星座的在轨规模,提升星座全球覆盖能力与网络服务性能。

Basic Information
目录编号:
64682
目录名称:
STARLINK-34551
国际标识:
2025-139U
轨道中心:
EARTH
卫星名称:
星链-34551
卫星全名:
星链-34551 (STARLINK-34551)
卫星状态:
在轨 (已飞行331 天)
发射日期:
2025-06-28 UTC
国别 :
美国 (US)
星等 :
--
Orbit Information
数据来源 国际轨道数据 AOE轨道数据
星历时间 2026-05-25T14:05:02+0800
10小时前
查看轨道信息
2026-05-23T03:00:00+0800
2天前
查看轨道信息
半长轴 6853.296km 6853.289km
偏心率 0.0000957 0.0001214
轨道倾角 53.161° 53.160°
近地点辐角 85.551° 76.375°
升交点赤经 120.946° 132.383°
平近点角 274.560° 34.792°
近地点 474.503km 474.32km
远地点 475.815km 475.984km
周期 94.104分钟 94.104分钟
每日圈数 15.302188 15.302212
Detailed Information
固有亮度:
5
最大亮度:
2.5
卫星平台:
Starlink V1.0
覆盖范围:
全球
运营商:
太空探索技术公司
运营商所在国:
美国
制造商(研发单位):
太空探索技术公司
制造商所在国:
美国
使用方式:
暂无
Satellite Introduction
Starlink 计划是 SpaceX 推出的全球卫星互联网项目,通过发射低轨道卫星,为全球尤其是偏远地区提供高速、低延迟的互联网服务。自 2019 年起,Starlink 已部署数千颗卫星,旨在缩小全球数字鸿沟,推动互联网普及。该项目还为军事、航空等行业提供通信支持,带来广泛经济效益。
2D Orbit Map
3D Orbit Map
Orbit Altitude Analysis Chart
Orbit Inclination Analysis Chart
Orbit Comprehensive Analysis Chart
View Comprehensive Chart